When you browse on this site, cookies collect data to enhance your experience and personalize the content and advertising you see.
Visit our Privacy Policy to learn more. By continuing to use the site, you agree to this use of cookies and data.
  • In France
  • List of Countries
  • For 7 days
  • Water Temperature
  • Weather Map
  • Weather Widgets
  • user-avatar
    Login

    Hourly Weather Red Deer

    Today, 4 April, Saturday

    Time Temperature Precipitation Wind Pressure Humidity
    00:00 -14°C° 0.1 mm 1 mps 681 mmHg 96%
    01:00 -14°C° 0.1 mm 1 mps 681 mmHg 96%
    02:00 -15°C° 0 mm 1 mps 681 mmHg 97%
    03:00 -15°C° 0 mm 1 mps 681 mmHg 97%
    04:00 -16°C° 0 mm 1 mps 681 mmHg 97%
    05:00 -15°C° 0 mm 1 mps 681 mmHg 97%
    06:00 -15°C° 0 mm 1 mps 681 mmHg 96%
    07:00 -15°C° 0 mm 1 mps 681 mmHg 96%
    08:00 -14°C° 0 mm 1 mps 681 mmHg 94%
    09:00 -12°C° 0 mm 1 mps 681 mmHg 92%
    10:00 -11°C° 0 mm 1 mps 681 mmHg 90%
    11:00 -10°C° 0 mm 1 mps 680 mmHg 89%
    12:00 -10°C° 0 mm 2 mps 680 mmHg 89%
    13:00 -9°C° 0 mm 2 mps 680 mmHg 89%
    14:00 -9°C° 0 mm 2 mps 680 mmHg 89%
    15:00 -10°C° 0 mm 3 mps 680 mmHg 90%
    16:00 -10°C° 0 mm 3 mps 680 mmHg 90%
    17:00 -12°C° 0 mm 3 mps 680 mmHg 92%
    18:00 -12°C° 0 mm 3 mps 680 mmHg 93%
    19:00 -13°C° 0 mm 3 mps 680 mmHg 94%
    20:00 -14°C° 0 mm 3 mps 680 mmHg 95%
    21:00 -15°C° 0 mm 3 mps 679 mmHg 96%
    22:00 -17°C° 0 mm 3 mps 679 mmHg 97%
    23:00 -16°C° 0 mm 2 mps 679 mmHg 97%

    Tomorrow, 5 April, Sunday

    Time Temperature Precipitation Wind Pressure Humidity
    00:00 -16°C° 0 mm 2 mps 678 mmHg 97%
    01:00 -16°C° 0 mm 2 mps 678 mmHg 96%
    02:00 -16°C° 0.1 mm 2 mps 678 mmHg 96%
    03:00 -16°C° 0.1 mm 2 mps 678 mmHg 96%
    04:00 -15°C° 0.1 mm 2 mps 678 mmHg 96%
    05:00 -15°C° 0.3 mm 2 mps 678 mmHg 95%
    06:00 -14°C° 0.3 mm 2 mps 678 mmHg 95%
    07:00 -15°C° 0.3 mm 3 mps 678 mmHg 95%
    08:00 -14°C° 0.2 mm 3 mps 677 mmHg 94%
    09:00 -13°C° 0.2 mm 3 mps 677 mmHg 93%
    10:00 -12°C° 0.2 mm 3 mps 677 mmHg 93%
    11:00 -10°C° 0.1 mm 3 mps 677 mmHg 93%
    12:00 -9°C° 0.1 mm 3 mps 676 mmHg 92%
    13:00 -8°C° 0.1 mm 3 mps 676 mmHg 92%
    14:00 -8°C° 0 mm 3 mps 676 mmHg 92%
    15:00 -8°C° 0 mm 3 mps 676 mmHg 92%
    16:00 -8°C° 0 mm 3 mps 675 mmHg 92%
    17:00 -9°C° 0 mm 3 mps 675 mmHg 93%
    18:00 -8°C° 0 mm 2 mps 675 mmHg 95%
    19:00 -9°C° 0 mm 2 mps 675 mmHg 96%
    20:00 -9°C° 0 mm 2 mps 675 mmHg 96%
    21:00 -9°C° 0 mm 1 mps 675 mmHg 96%
    22:00 -9°C° 0 mm 1 mps 675 mmHg 96%
    23:00 -10°C° 0 mm 1 mps 674 mmHg 96%

    Day after tomorrow, 6 April, Monday

    Time Temperature Precipitation Wind Pressure Humidity
    00:00 -10°C° 0 mm 1 mps 674 mmHg 96%
    01:00 -10°C° 0 mm 1 mps 674 mmHg 97%
    02:00 -10°C° 0 mm 1 mps 673 mmHg 96%
    03:00 -10°C° 0 mm 1 mps 673 mmHg 96%
    04:00 -12°C° 0 mm 2 mps 673 mmHg 96%
    05:00 -10°C° 0 mm 2 mps 673 mmHg 96%
    06:00 -10°C° 0 mm 2 mps 673 mmHg 95%
    07:00 -9°C° 0 mm 1 mps 673 mmHg 95%
    08:00 -9°C° 0 mm 2 mps 672 mmHg 93%
    09:00 -8°C° 0 mm 2 mps 672 mmHg 91%
    10:00 -7°C° 0 mm 2 mps 672 mmHg 89%
    11:00 -4°C° 0 mm 1 mps 672 mmHg 87%
    12:00 -3°C° 0 mm 1 mps 672 mmHg 85%
    13:00 -2°C° 0 mm 1 mps 671 mmHg 84%
    14:00 -2°C° 0 mm 1 mps 671 mmHg 86%
    15:00 -4°C° 0 mm 2 mps 671 mmHg 88%
    16:00 -5°C° 0 mm 3 mps 670 mmHg 91%
    17:00 -5°C° 0 mm 2 mps 671 mmHg 91%
    18:00 -7°C° 0 mm 2 mps 671 mmHg 90%
    19:00 -8°C° 0 mm 2 mps 671 mmHg 90%
    20:00 -8°C° 0 mm 2 mps 671 mmHg 89%
    21:00 -8°C° 0 mm 2 mps 671 mmHg 89%
    22:00 -7°C° 0 mm 1 mps 671 mmHg 88%
    23:00 -7°C° 0 mm 2 mps 672 mmHg 89%

    7 April, Tuesday

    Time Temperature Precipitation Wind Pressure Humidity
    00:00 -8°C° 0 mm 3 mps 672 mmHg 89%
    01:00 -7°C° 0 mm 3 mps 672 mmHg 90%
    02:00 -7°C° 0.2 mm 3 mps 672 mmHg 90%
    03:00 -7°C° 0.2 mm 4 mps 673 mmHg 91%
    04:00 -5°C° 0.2 mm 4 mps 673 mmHg 91%
    05:00 -5°C° 0 mm 4 mps 674 mmHg 88%
    06:00 -6°C° 0 mm 5 mps 674 mmHg 85%
    07:00 -6°C° 0 mm 6 mps 675 mmHg 82%
    08:00 -6°C° 0 mm 6 mps 676 mmHg 79%
    09:00 -6°C° 0 mm 7 mps 676 mmHg 75%
    10:00 -4°C° 0 mm 7 mps 677 mmHg 71%
    11:00 -5°C° 0 mm 8 mps 677 mmHg 71%
    12:00 -5°C° 0 mm 8 mps 678 mmHg 71%
    13:00 -5°C° 0 mm 8 mps 679 mmHg 71%
    14:00 -4°C° 0 mm 7 mps 680 mmHg 74%
    15:00 -4°C° 0 mm 6 mps 680 mmHg 77%
    16:00 -4°C° 0 mm 5 mps 681 mmHg 80%
    17:00 -4°C° 0 mm 4 mps 682 mmHg 80%
    18:00 -7°C° 0 mm 4 mps 683 mmHg 81%
    19:00 -8°C° 0 mm 4 mps 683 mmHg 82%
    20:00 -8°C° 0 mm 4 mps 684 mmHg 83%
    21:00 -9°C° 0 mm 4 mps 685 mmHg 83%
    22:00 -9°C° 0 mm 4 mps 686 mmHg 84%
    23:00 -10°C° 0 mm 4 mps 686 mmHg 86%

    8 April, Wednesday

    Time Temperature Precipitation Wind Pressure Humidity
    00:00 -11°C° 0 mm 4 mps 687 mmHg 88%
    01:00 -12°C° 0 mm 3 mps 687 mmHg 90%
    02:00 -12°C° 0 mm 3 mps 687 mmHg 90%
    03:00 -12°C° 0 mm 3 mps 688 mmHg 90%
    04:00 -13°C° 0 mm 3 mps 688 mmHg 89%
    05:00 -12°C° 0 mm 3 mps 688 mmHg 89%
    06:00 -10°C° 0 mm 3 mps 689 mmHg 89%
    07:00 -9°C° 0 mm 3 mps 689 mmHg 88%
    08:00 -7°C° 0 mm 3 mps 689 mmHg 86%
    09:00 -5°C° 0 mm 2 mps 689 mmHg 84%
    10:00 -3°C° 0 mm 2 mps 689 mmHg 82%
    11:00 -2°C° 0 mm 2 mps 689 mmHg 82%
    12:00 0°C° 0 mm 1 mps 689 mmHg 82%
    13:00 0°C° 0 mm 1 mps 688 mmHg 82%
    14:00 0°C° 0 mm 1 mps 688 mmHg 84%
    15:00 +1°C° 0 mm 1 mps 688 mmHg 86%
    16:00 +1°C° 0 mm 1 mps 688 mmHg 88%
    17:00 -1°C° 0 mm 1 mps 688 mmHg 88%
    18:00 -4°C° 0 mm 2 mps 688 mmHg 87%
    19:00 -6°C° 0 mm 2 mps 688 mmHg 86%
    20:00 -6°C° 0 mm 2 mps 688 mmHg 86%
    21:00 -7°C° 0 mm 2 mps 687 mmHg 86%
    22:00 -8°C° 0 mm 3 mps 687 mmHg 85%
    23:00 -8°C° 0 mm 3 mps 687 mmHg 85%

    9 April, Thursday

    Time Temperature Precipitation Wind Pressure Humidity
    00:00 -8°C° 0 mm 3 mps 686 mmHg 84%
    01:00 -9°C° 0 mm 4 mps 686 mmHg 83%
    02:00 -8°C° 0 mm 3 mps 685 mmHg 83%
    03:00 -8°C° 0 mm 3 mps 685 mmHg 84%
    04:00 -9°C° 0 mm 3 mps 685 mmHg 84%
    05:00 -8°C° 0 mm 3 mps 685 mmHg 85%
    06:00 -7°C° 0 mm 3 mps 685 mmHg 85%
    07:00 -6°C° 0 mm 3 mps 684 mmHg 86%
    08:00 -4°C° 0 mm 3 mps 684 mmHg 90%
    09:00 -2°C° 0 mm 2 mps 684 mmHg 94%
    10:00 -1°C° 0 mm 2 mps 683 mmHg 98%
    11:00 +1°C° 0 mm 2 mps 683 mmHg 99%
    12:00 0°C° 0 mm 3 mps 682 mmHg 99%
    13:00 0°C° 0 mm 3 mps 682 mmHg 99%
    14:00 0°C° 0 mm 3 mps 681 mmHg 99%
    15:00 0°C° 0 mm 3 mps 681 mmHg 99%
    16:00 0°C° 0 mm 3 mps 681 mmHg 99%
    17:00 0°C° 0 mm 3 mps 681 mmHg 96%
    18:00 +1°C° 0 mm 2 mps 681 mmHg 93%
    19:00 +1°C° 0 mm 2 mps 681 mmHg 89%
    20:00 +1°C° 0 mm 2 mps 681 mmHg 88%
    21:00 +1°C° 0 mm 2 mps 682 mmHg 86%
    22:00 +2°C° 0 mm 1 mps 682 mmHg 85%
    23:00 +1°C° 0 mm 2 mps 682 mmHg 84%
    Show more